Content
SEND FEEDBACK

Daily
Averages
Monthly
Summary
United States of America

ALTURA, MINNESOTA


Home > North America > United States > Minnesota
Elevation: 1081 feet     Latitude: 44 10N     Longitude: 092 00W

WEATHER
 
SELECT A DAY
Number of Records: 457,957;   Date Range: 1/1/95 - 8/12/14
 
SHARE

PRINT THIS DATA

[ ← Previous Day ]
WEATHER ALMANAC - JANUARY 23, 2013
[ Next Day → ]
[ °C ]   °F
Weather ElementAverageHighLow
Temperature11.5 °F19.4 °F (10:54 am)-0.4 °F (10:34 pm)
Dewpoint0.6 °F10.4 °F (10:35 am)-16.6 °F (11:55 pm)
Humidity62.4 %79 % (5:54 am)43 % (8:55 pm)
Barometer30.26 in30.57 in (11:55 pm)30.12 in (1:54 pm)
Wind Speed7.4 mph23 mph (4:35 pm)
Wind Gust31.1 mph (4:54 pm)
Weather ElementAverage
Visibility8.8 mi
Wind DirectionSSW (197.7 °)

Weather ElementTotal
Precipitation---
Heating Degree Days55.5 (Base 65)
Averaged from 71 records on January 23, 2013
WEATHER CONDITIONS BREAKOUT
WIND DIRECTION BREAKOUT
WEATHER BY HOUR - JANUARY 23, 2013
[ °C ]   °F
Local TimeTemperatureDewpointHumidityBarometerVisibilityWind DirectionWind SpeedGust SpeedPrecipitationEventsConditions
12:34 AM8.6 °F-4.0 °F57 %30.26 in10.0 miCalmOvercast
12:54 AM8.6 °F-4.0 °F57 %30.26 in10.0 miCalmOvercast
1:15 AM8.6 °F-4.0 °F57 %30.26 in10.0 miCalmOvercast
1:34 AM10.4 °F-2.2 °F57 %30.25 in10.0 miCalmOvercast
1:54 AM10.4 °F-2.2 °F57 %30.25 in10.0 miCalmOvercast
2:15 AM10.4 °F-0.4 °F62 %30.25 in10.0 miCalmOvercast
2:34 AM10.4 °F-0.4 °F62 %30.25 in10.0 miCalmOvercast
2:54 AM10.4 °F-0.4 °F62 %30.24 in10.0 miCalmOvercast
3:15 AM10.4 °F-0.4 °F62 %30.24 in10.0 miCalmOvercast
3:34 AM10.4 °F1.4 °F67 %30.23 in10.0 miCalmOvercast
3:54 AM10.4 °F1.4 °F67 %30.22 in10.0 miCalmOvercast
4:15 AM10.4 °F1.4 °F67 %30.21 in10.0 miCalmOvercast
4:34 AM10.4 °F1.4 °F67 %30.20 in10.0 miCalmOvercast
4:54 AM10.4 °F1.4 °F67 %30.20 in10.0 miCalmOvercast
5:15 AM12.2 °F3.2 °F67 %30.19 in5.0 miSSW (210°)3.5 mphSnowLight Snow
5:34 AM10.4 °F3.2 °F73 %30.19 in4.0 miCalmSnowLight Snow
5:54 AM10.4 °F5.0 °F79 %30.18 in3.0 miCalmSnowLight Snow
6:15 AM10.4 °F5.0 °F79 %30.18 in3.0 miCalmSnowLight Snow
6:34 AM10.4 °F5.0 °F79 %30.19 in4.0 miCalmSnowLight Snow
6:54 AM10.4 °F5.0 °F79 %30.18 in4.0 miCalmSnowLight Snow
7:14 AM10.4 °F5.0 °F79 %30.17 in4.0 miCalmSnowLight Snow
7:34 AM14.0 °F8.6 °F79 %30.17 in7.0 miCalmSnowLight Snow
7:55 AM14.0 °F8.6 °F79 %30.17 in10.0 miCalmSnowLight Snow
8:14 AM14.0 °F8.6 °F79 %30.17 in10.0 miCalmSnowLight Snow
8:34 AM14.0 °F8.6 °F79 %30.17 in10.0 miCalmSnowLight Snow
8:55 AM14.0 °F8.6 °F79 %30.17 in7.0 miCalmSnowLight Snow
9:14 AM14.0 °F8.6 °F79 %30.17 in10.0 miWSW (250°)3.5 mphSnowLight Snow
9:34 AM14.0 °F8.6 °F79 %30.17 in10.0 miWSW (250°)3.5 mphOvercast
9:55 AM15.8 °F8.6 °F73 %30.17 in10.0 miWSW (250°)3.5 mphOvercast
10:14 AM17.6 °F8.6 °F68 %30.17 in10.0 miWest (270°)4.6 mphMostly Cloudy
10:35 AM17.6 °F10.4 °F73 %30.17 in10.0 miWNW (300°)6.9 mphMostly Cloudy
10:54 AM19.4 °F10.4 °F68 %30.16 in10.0 miNW (310°)5.8 mphSnowLight Snow
11:14 AM19.4 °F10.4 °F68 %30.16 in10.0 miNW (310°)11.5 mphOvercast
11:35 AM19.4 °F10.4 °F68 %30.16 in10.0 miWNW (300°)9.2 mph16.1 mphOvercast
11:54 AM19.4 °F10.4 °F68 %30.15 in5.0 miWNW (300°)9.2 mphSnowLight Snow
12:14 PM19.4 °F10.4 °F68 %30.14 in4.0 miWNW (300°)8.1 mphSnowLight Snow
12:35 PM19.4 °F10.4 °F68 %30.14 in10.0 miNW (310°)12.7 mphSnowLight Snow
12:54 PM19.4 °F8.6 °F63 %30.14 in10.0 miNW (310°)12.7 mphSnowLight Snow
1:14 PM19.4 °F8.6 °F63 %30.14 in10.0 miWNW (300°)10.4 mph18.4 mphOvercast
1:35 PM19.4 °F8.6 °F63 %30.13 in10.0 miWNW (300°)13.8 mph18.4 mphOvercast
1:54 PM19.4 °F6.8 °F58 %30.12 in10.0 miWNW (300°)15.0 mph18.4 mphOvercast
2:14 PM19.4 °F5.0 °F54 %30.13 in5.0 miWNW (290°)18.4 mph23.0 mphHaze
2:35 PM19.4 °F6.8 °F58 %30.14 in10.0 miNW (310°)18.4 mph27.6 mphOvercast
2:54 PM19.4 °F6.8 °F58 %30.15 in7.0 miNW (320°)18.4 mph24.2 mphOvercast
3:14 PM19.4 °F8.6 °F63 %30.16 in7.0 miNNW (340°)15.0 mph21.9 mphSnowLight Snow
3:35 PM17.6 °F8.6 °F68 %30.17 in4.0 miNNW (330°)16.1 mph23.0 mphSnowLight Snow
3:54 PM15.8 °F5.0 °F62 %30.19 in10.0 miNNW (330°)16.1 mph29.9 mphMostly Cloudy
4:14 PM15.8 °F5.0 °F62 %30.20 in10.0 miNW (320°)12.7 mph25.3 mphMostly Cloudy
4:35 PM15.8 °F5.0 °F62 %30.22 in5.0 miNW (320°)23.0 mph29.9 mphSnowLight Snow
4:54 PM14.0 °F1.4 °F57 %30.24 in10.0 miNNW (330°)21.9 mph31.1 mphScattered Clouds
5:14 PM14.0 °F3.2 °F62 %30.26 in7.0 miNNW (340°)16.1 mph26.5 mphMostly Cloudy
5:35 PM14.0 °F3.2 °F62 %30.28 in10.0 miNNW (340°)12.7 mph18.4 mphOvercast
5:54 PM10.4 °F-4.0 °F52 %30.31 in10.0 miNNW (340°)17.3 mph29.9 mphScattered Clouds
6:14 PM8.6 °F-5.8 °F52 %30.32 in10.0 miNW (320°)15.0 mph20.7 mphClear
6:35 PM8.6 °F-5.8 °F52 %30.36 in10.0 miNNW (340°)17.3 mph26.5 mphClear
6:54 PM8.6 °F-5.8 °F52 %30.38 in10.0 miNNW (340°)15.0 mph23.0 mphClear
7:14 PM8.6 °F-5.8 °F52 %30.39 in10.0 miNNW (340°)15.0 mph21.9 mphScattered Clouds
7:34 PM6.8 °F-9.4 °F48 %30.40 in10.0 miNorth (10°)10.4 mph19.6 mphScattered Clouds
7:54 PM5.0 °F-9.4 °F52 %30.42 in10.0 miNorth (360°)10.4 mph19.6 mphClear
8:15 PM5.0 °F-9.4 °F52 %30.44 in10.0 miNorth (360°)6.9 mphClear
8:34 PM3.2 °F-13.0 °F47 %30.45 in10.0 miNorth (350°)12.7 mph23.0 mphClear
8:55 PM3.2 °F-14.8 °F43 %30.47 in10.0 miNorth (10°)9.2 mphClear
9:15 PM1.4 °F-14.8 °F47 %30.49 in10.0 miNorth (350°)11.5 mph20.7 mphClear
9:34 PM1.4 °F-14.8 °F47 %30.51 in10.0 miNorth (350°)8.1 mph18.4 mphClear
9:55 PM1.4 °F-14.8 °F47 %30.51 in10.0 miNorth (360°)4.6 mphClear
10:15 PM1.4 °F-14.8 °F47 %30.52 in10.0 miNorth (350°)10.4 mphClear
10:34 PM-0.4 °F-14.8 °F51 %30.53 in10.0 miNorth (350°)6.9 mphClear
10:55 PM-0.4 °F-14.8 °F51 %30.54 in10.0 miNorth (350°)5.8 mphClear
11:15 PM-0.4 °F-14.8 °F51 %30.55 in10.0 miNNW (340°)10.4 mph16.1 mphClear
11:34 PM-0.4 °F-14.8 °F51 %30.56 in10.0 miNNW (330°)6.9 mphClear
11:55 PM-0.4 °F-16.6 °F46 %30.57 in10.0 miNorth (350°)5.8 mph17.3 mphClear
Hourly data recorded from KONA, located miles away from Altura, Minnesota







STORIES FROM OUR PARTNERS